| time (UTC) | temp C | wind direction | speed KPH | gust KPH | rain 1hr cm | rain 24hr cm | rain mn cm | humidity % | barometer mb |
| 20260505040815 | 25 | 129 | 0.0 | 0.0 | 0.00 | 0.00 | 0.00 | 83 | 1017.2 |
| 20260505035815 | 25 | 111 | 1.6 | 1.6 | 0.00 | 0.00 | 0.00 | 83 | 1017.2 |
| 20260505034814 | 25 | 129 | 1.6 | 1.6 | 0.00 | 0.00 | 0.00 | 83 | 1017.2 |
| 20260505033814 | 25 | 128 | 0.0 | 1.6 | 0.00 | 0.00 | 0.00 | 84 | 1017.2 |
| 20260505032809 | 25 | 131 | 1.6 | 1.6 | 0.00 | 0.00 | 0.00 | 83 | 1017.3 |
| 20260505031808 | 25 | 140 | 1.6 | 1.6 | 0.00 | 0.00 | 0.00 | 84 | 1017.5 |
| 20260505030807 | 25 | 137 | 1.6 | 3.2 | 0.00 | 0.00 | 0.00 | 88 | 1017.6 |
| 20260505025804 | 25 | 140 | 1.6 | 1.6 | 0.00 | 0.00 | 0.00 | 88 | 1017.6 |
| 20260505024800 | 25 | 134 | 0.0 | 0.0 | 0.00 | 0.00 | 0.00 | 88 | 1017.4 |
| 20260505023800 | 25 | 141 | 1.6 | 3.2 | 0.00 | 0.00 | 0.00 | 87 | 1017.3 |
| 20260505022800 | 25 | 118 | 0.0 | 0.0 | 0.00 | 0.00 | 0.00 | 86 | 1017.2 |
| 20260505021800 | 26 | 140 | 0.0 | 0.0 | 0.00 | 0.00 | 0.00 | 85 | 1017.3 |
| 20260505020759 | 26 | 130 | 0.0 | 0.0 | 0.00 | 0.00 | 0.00 | 84 | 1016.9 |
| 20260505015757 | 26 | 134 | 0.0 | 0.0 | 0.00 | 0.00 | 0.00 | 83 | 1017.0 |
| 20260505014757 | 26 | 140 | 0.0 | 0.0 | 0.00 | 0.00 | 0.00 | 82 | 1017.2 |
| 20260505013757 | 27 | 134 | 1.6 | 3.2 | 0.00 | 0.00 | 0.00 | 81 | 1017.0 |
| 20260505012752 | 27 | 122 | 0.0 | 1.6 | 0.00 | 0.00 | 0.00 | 80 | 1016.9 |
| 20260505011751 | 27 | 108 | 1.6 | 1.6 | 0.00 | 0.00 | 0.00 | 80 | 1016.7 |
| 20260505010750 | 27 | 124 | 0.0 | 0.0 | 0.00 | 0.00 | 0.00 | 80 | 1016.8 |
| 20260505005748 | 27 | 131 | 3.2 | 3.2 | 0.00 | 0.00 | 0.00 | 79 | 1016.8 |
| 20260505004743 | 27 | 106 | 1.6 | 3.2 | 0.00 | 0.00 | 0.00 | 77 | 1016.3 |
| 20260505003742 | 27 | 127 | 1.6 | 1.6 | 0.00 | 0.00 | 0.00 | 75 | 1016.5 |
| 20260505002742 | 26 | 123 | 0.0 | 1.6 | 0.00 | 0.00 | 0.00 | 76 | 1016.4 |
| 20260505001737 | 27 | 127 | 1.6 | 1.6 | 0.00 | 0.00 | 0.00 | 75 | 1016.3 |
| 20260505000736 | 27 | 124 | 0.0 | 0.0 | 0.00 | 0.00 | 0.00 | 73 | 1016.2 |
| 20260504235736 | 27 | 109 | 1.6 | 1.6 | 0.00 | 0.00 | 0.00 | 72 | 1016.1 |
| 20260504234736 | 27 | 151 | 1.6 | 3.2 | 0.00 | 0.00 | 0.00 | 71 | 1016.1 |
| 20260504233735 | 27 | 155 | 1.6 | 1.6 | 0.00 | 0.00 | 0.00 | 71 | 1015.9 |
| 20260504232734 | 28 | 110 | 1.6 | 1.6 | 0.00 | 0.00 | 0.00 | 70 | 1015.9 |
| 20260504231734 | 28 | 129 | 1.6 | 3.2 | 0.00 | 0.00 | 0.00 | 69 | 1015.8 |
| 20260504230732 | 28 | 119 | 4.8 | 4.8 | 0.00 | 0.00 | 0.00 | 68 | 1015.7 |
| 20260504225729 | 28 | 137 | 6.4 | 8.0 | 0.00 | 0.00 | 0.00 | 67 | 1015.7 |
| 20260504224728 | 28 | 179 | 8.0 | 11.3 | 0.00 | 0.00 | 0.00 | 66 | 1015.6 |
| 20260504223727 | 28 | 136 | 9.7 | 11.3 | 0.00 | 0.00 | 0.00 | 65 | 1015.5 |
| 20260504222726 | 29 | 164 | 1.6 | 1.6 | 0.00 | 0.00 | 0.00 | 65 | 1015.6 |
| 20260504221726 | 29 | 161 | 6.4 | 9.7 | 0.00 | 0.00 | 0.00 | 65 | 1015.5 |
| 20260504220725 | 30 | 128 | 8.0 | 11.3 | 0.00 | 0.00 | 0.00 | 63 | 1015.4 |
| 20260504215720 | 30 | 157 | 8.0 | 9.7 | 0.00 | 0.00 | 0.00 | 63 | 1015.0 |
| 20260504214718 | 30 | 153 | 11.3 | 12.9 | 0.00 | 0.00 | 0.00 | 63 | 1014.9 |
| 20260504213718 | 30 | 186 | 4.8 | 4.8 | 0.00 | 0.00 | 0.00 | 61 | 1014.9 |
| 20260504212717 | 30 | 156 | 8.0 | 9.7 | 0.00 | 0.00 | 0.00 | 60 | 1014.6 |
| 20260504211716 | 30 | 184 | 12.9 | 14.5 | 0.00 | 0.00 | 0.00 | 58 | 1014.9 |
| 20260504210716 | 30 | 106 | 6.4 | 9.7 | 0.00 | 0.00 | 0.00 | 60 | 1014.8 |
| 20260504205716 | 30 | 177 | 8.0 | 9.7 | 0.00 | 0.00 | 0.00 | 58 | 1014.6 |
| 20260504204712 | 31 | 178 | 6.4 | 8.0 | 0.00 | 0.00 | 0.00 | 57 | 1014.7 |
| 20260504203709 | 31 | 120 | 8.0 | 12.9 | 0.00 | 0.00 | 0.00 | 57 | 1014.8 |
| 20260504202706 | 31 | 160 | 8.0 | 14.5 | 0.00 | 0.00 | 0.00 | 57 | 1014.6 |
| 20260504201700 | 31 | 147 | 6.4 | 9.7 | 0.00 | 0.00 | 0.00 | 57 | 1014.8 |
| 20260504200655 | 31 | 145 | 6.4 | 8.0 | 0.00 | 0.00 | 0.00 | 56 | 1014.7 |
| 20260504195653 | 31 | 197 | 11.3 | 12.9 | 0.00 | 0.00 | 0.00 | 56 | 1014.9 |
| 20260504194652 | 31 | 115 | 9.7 | 16.1 | 0.00 | 0.00 | 0.00 | 54 | 1015.0 |
| 20260504193650 | 31 | 152 | 8.0 | 9.7 | 0.00 | 0.00 | 0.00 | 55 | 1014.8 |
| 20260504192646 | 31 | 196 | 11.3 | 16.1 | 0.00 | 0.00 | 0.00 | 55 | 1015.0 |
| 20260504191642 | 31 | 200 | 14.5 | 16.1 | 0.00 | 0.00 | 0.00 | 53 | 1015.0 |
| 20260504190640 | 32 | 154 | 11.3 | 12.9 | 0.00 | 0.00 | 0.00 | 52 | 1015.1 |
| 20260504185639 | 31 | 167 | 9.7 | 14.5 | 0.00 | 0.00 | 0.00 | 52 | 1015.1 |
| 20260504184638 | 32 | 161 | 11.3 | 12.9 | 0.00 | 0.00 | 0.00 | 53 | 1014.9 |
| 20260504183636 | 32 | 163 | 16.1 | 20.9 | 0.00 | 0.00 | 0.00 | 51 | 1014.9 |
| 20260504182631 | 32 | 188 | 14.5 | 17.7 | 0.00 | 0.00 | 0.00 | 51 | 1015.1 |
| 20260504181631 | 32 | 130 | 16.1 | 17.7 | 0.00 | 0.00 | 0.00 | 50 | 1015.0 |
| 20260504180628 | 32 | 169 | 14.5 | 17.7 | 0.00 | 0.00 | 0.00 | 48 | 1015.4 |
| 20260504175623 | 32 | 103 | 9.7 | 12.9 | 0.00 | 0.00 | 0.00 | 47 | 1015.7 |
| 20260504174618 | 32 | 120 | 16.1 | 22.5 | 0.00 | 0.00 | 0.00 | 46 | 1015.7 |
| 20260504173617 | 32 | 115 | 6.4 | 8.0 | 0.00 | 0.00 | 0.00 | 46 | 1015.8 |
| 20260504172616 | 32 | 169 | 19.3 | 24.1 | 0.00 | 0.00 | 0.00 | 42 | 1016.2 |
| 20260504171615 | 32 | 138 | 11.3 | 17.7 | 0.00 | 0.00 | 0.00 | 43 | 1016.1 |
| 20260504170614 | 32 | 171 | 9.7 | 11.3 | 0.00 | 0.00 | 0.00 | 43 | 1016.0 |
| 20260504150548 | 31 | 136 | 9.7 | 11.3 | 0.00 | 0.00 | 0.00 | 54 | 1016.6 |
| 20260504140534 | 30 | 172 | 6.4 | 8.0 | 0.00 | 0.00 | 0.00 | 56 | 1016.8 |
| 20260504130527 | 29 | 192 | 4.8 | 4.8 | 0.00 | 0.00 | 0.00 | 61 | 1017.0 |
| 20260504110502 | 23 | 33 | 0.0 | 0.0 | 0.00 | 0.00 | 0.00 | 83 | 1016.9 |
| 20260504100448 | 21 | 141 | 0.0 | 0.0 | 0.00 | 0.00 | 0.00 | 89 | 1016.1 |
| 20260504081423 | 21 | 123 | 0.0 | 0.0 | 0.00 | 0.00 | 0.00 | 87 | 1015.9 |
| 20260504080422 | 21 | 132 | 0.0 | 0.0 | 0.00 | 0.00 | 0.00 | 87 | 1015.8 |
| 20260504070402 | 22 | 138 | 0.0 | 0.0 | 0.00 | 0.00 | 0.00 | 86 | 1015.8 |
| 20260504050328 | 23 | 143 | 0.0 | 0.0 | 0.00 | 0.00 | 0.00 | 81 | 1016.6 |